This is the latest recevied weather packets stored in our database for station/object RW6A-13. If no packets are shown the sender has not sent any weather packets the latest 10 day(s).
| Time | Temp. | Humidity | Pressure | Rain* | Wind** | Luminosity | Snow |
|---|---|---|---|---|---|---|---|
| 1778052646 | 22.78° C | 48% | 1010.4 hPa | 0 mm | - | - | - |
| 1778052346 | 22.78° C | 50% | 1010.4 hPa | 0 mm | - | - | - |
| 1778052045 | 22.78° C | 47% | 1010.4 hPa | 0 mm | - | - | - |
| 1778051745 | 22.22° C | 48% | 1010.4 hPa | 0 mm | - | - | - |
| 1778051445 | 21.67° C | 48% | 1010.4 hPa | 0 mm | - | - | - |
| 1778051145 | 21.67° C | 51% | 1010.5 hPa | 0 mm | - | - | - |
| 1778050846 | 21.11° C | 49% | 1010.4 hPa | 0 mm | - | - | - |
| 1778050545 | 21.11° C | 50% | 1010.4 hPa | 0 mm | - | - | - |
| 1778050245 | 21.67° C | 49% | 1010.4 hPa | 0 mm | - | - | - |
| 1778049944 | 21.11° C | 51% | 1010.4 hPa | 0 mm | - | - | - |
| 1778049645 | 20.56° C | 49% | 1010.4 hPa | 0 mm | - | - | - |
| 1778049345 | 20° C | 50% | 1010.5 hPa | 0 mm | - | - | - |
| 1778049044 | 20.56° C | 48% | 1010.5 hPa | 0 mm | - | - | - |
| 1778048745 | 20° C | 51% | 1010.6 hPa | 0 mm | - | - | - |
| 1778048445 | 20° C | 50% | 1010.5 hPa | 0 mm | - | - | - |
| 1778048145 | 18.89° C | 52% | 1010.6 hPa | 0 mm | - | - | - |
| 1778047545 | 18.89° C | 56% | 1010.5 hPa | 0 mm | - | - | - |
| 1778047244 | 18.89° C | 58% | 1010.6 hPa | 0 mm | - | - | - |
| 1778046944 | 18.33° C | 60% | 1010.7 hPa | 0 mm | - | - | - |
| 1778046645 | 18.33° C | 63% | 1010.7 hPa | 0 mm | - | - | - |
| 1778046345 | 17.22° C | 66% | 1010.6 hPa | 0 mm | - | - | - |
| 1778046044 | 16.67° C | 68% | 1010.7 hPa | 0 mm | - | - | - |
| 1778045744 | 16.67° C | 68% | 1010.6 hPa | 0 mm | - | - | - |
| 1778045444 | 16.67° C | 69% | 1010.7 hPa | 0 mm | - | - | - |
| 1778045144 | 16.67° C | 67% | 1010.7 hPa | 0 mm | - | - | - |
* Rain latest hour (hover to see other rain measurements)
** Current wind speed in m/s (hover to see current wind gust speed)